Location: Branche des Alpilles
(43.6087°N, 4.6976°E)
Time: 13:11:08
(UTC+00:00)

MOS 1 Rocket - Pass Details

Date: 30 November 2020
Orbit: 613 x 831 km, 97.4° (Epoch: 25 January)

Event Time Altitude Azimuth Distance (km) Brightness Sun altitude
Exits shadow 18:03:10 29° 34° (NNE) 1,486 4.6 -20.7°
Maximum altitude 18:05:48 55° 99° (E) 986 3.7 -21.1°
Drops below altitude 10° 18:11:03 10° 177° (S) 2,391 6.1 -22.1°
Sets 18:13:24 0° 181° (S) 3,296 6.9 -22.5°
